Regional Weather Roundup
Issued by NWS Albany, NY

Home | Current Version | Previous Version | Text Only | Print | Product List | Glossary On
Versions: 1 2 3 4 5 6 7 8 9 10 11 12 13 14 15 16 17 18 19 20 21 22 23 24 25 26 27 28 29 30 31 32 33 34 35 36 37 38 39 40 41 42 43 44 45 46 47 48 49
000
ASUS41 KALY 290810
RWRALY

NEW YORK STATE HOURLY WEATHER ROUNDUP
NATIONAL WEATHER SERVICE ALBANY NY
400 AM EDT TUE JUL 29 2014

NOTE: "FAIR" INDICATES FEW OR NO CLOUDS BELOW 12,000 FEET WITH NO
SIGNIFICANT WEATHER AND/OR NO OBSTRUCTIONS TO VISIBILITY.

NYZ032-033-038>043-046>054-057>066-NYZ062>081-290900-
EAST


CITY           SKY/WX    TMP DP  RH WIND       PRES   REMARKS
ALBANY         CLOUDY    61  55  81 W8        29.75R
GLENS FALLS    CLOUDY    60  55  83 CALM      29.72R
POUGHKEEPSIE   CLOUDY    65  53  65 NW6       29.75R
MONTGOMERY     MOCLDY    61  53  75 W5        29.77R
WHITE PLAINS   PTCLDY    62  54  74 NW13      29.75R
ISLIP          CLEAR     66  56  70 NW7       29.73R
NEW YORK CITY  CLEAR     66  55  67 NW17      29.75R
CENTRAL PARK   CLEAR     65  53  65 NW8       29.79R
$$

NYZ005>009-017-018-044>046-055-056-290900-
CENTRAL


CITY           SKY/WX    TMP DP  RH WIND       PRES   REMARKS
FULTON         CLEAR     54  51  90 CALM      29.80S
SYRACUSE       PTCLDY    54  54 100 W7        29.80R
ROME           PTCLDY    53  51  93 CALM      29.80R
ELMIRA         CLEAR     55  53  93 W6        29.84R
BINGHAMTON     CLOUDY    55  54  94 NW3       29.83R
MONTICELLO     PTCLDY    55  52  88 W6        29.80S
$$

NYZ026>034-041>043-290900-
NORTH


CITY           SKY/WX    TMP DP  RH WIND       PRES   REMARKS
WATERTOWN      CLOUDY    54  49  83 CALM      29.79R
FORT DRUM      NOT AVBL
MASSENA        PTCLDY    56  50  80 NW6       29.74S
SARANAC LAKE   CLEAR     49  47  93 CALM      29.74R
PLATTSBURGH    PTCLDY    57  52  83 W5        29.70R
$$

NYZ001>004-010>016-019>021-290900-
WEST


CITY           SKY/WX    TMP DP  RH WIND       PRES   REMARKS
NIAGARA FALLS  CLOUDY    55  52  89 W7        29.87R
BUFFALO        PTCLDY    54  51  90 NW7       29.86F
DUNKIRK        CLOUDY    59  52  77 W3        29.89S
JAMESTOWN      CLOUDY    54  48  82 W6        29.90S
WELLSVILLE     CLEAR     51  46  83 NW9       29.89S
ROCHESTER      MOCLDY    55  53  93 W7        29.84S
PENN YAN       MOCLDY    57  53  86 W5        29.84S
$$

             KEY
       WCI = WIND CHILL INDEX
       VSB = VISIBILITY
       HX  = HEAT INDEX
$$


USA.gov is the U.S. government's official web portal to all federal, state and local government web resources and services.